Location: Anmer
(52.8333°N, 0.5833°E)
Time: 04:41:01
(UTC+00:00)

Cosmos 1842 - Pass Details

Date: 15 May 2026
Orbit: 395 x 398 km, 82.5° (Epoch: 6 June)

Event Time Altitude Azimuth Distance (km) Brightness Sun altitude
Exits shadow 23:27:49 28° 248° (WSW) 784 3.9 -17.9°
Maximum altitude 23:28:46 35° 287° (WNW) 662 3.9 -17.9°
Drops below altitude 10° 23:31:42 10° 355° (N) 1,454 6.8 -18.0°
Sets 23:33:50 0° 5° (N) 2,317 8.1 -18.0°
